DW4219 Weather Reports


time (UTC)temp
C
wind
direction
speed
KPH
gust
KPH
rain 1hr
cm
rain 24hr
cm
rain mn
cm
humidity
%
barometer
mb
20260507040112 10 184 0.0 1.6 0.00 0.00 0.00 36 1018.6
20260507034603 10 111 0.0 1.6 0.00 0.00 0.00 36 1018.3
20260507033057 10 111 0.0 1.6 0.00 0.00 0.00 33 1018.0
20260507031557 11 309 1.6 3.2 0.00 0.00 0.00 35 1017.8
20260507030054 13 51 0.0 9.7 0.00 0.00 0.00 27 1017.5
20260507024548 14 46 9.7 16.1 0.00 0.00 0.00 26 1017.1
20260507023046 15 59 11.3 20.9 0.00 0.00 0.00 25 1016.9
20260507021547 16 59 12.9 19.3 0.00 0.00 0.00 25 1016.6
20260507020053 17 41 14.5 25.7 0.00 0.00 0.00 23 1016.6
20260507014552 17 68 16.1 25.7 0.00 0.00 0.00 22 1016.6
20260507013043 18 53 14.5 27.4 0.00 0.00 0.00 21 1016.5
20260507011553 18 29 12.9 27.4 0.00 0.00 0.00 23 1016.3
20260507010041 18 38 12.9 29.0 0.00 0.00 0.00 23 1016.2
20260507004541 19 39 11.3 29.0 0.00 0.00 0.00 23 1016.1
20260507003039 19 70 12.9 29.0 0.00 0.00 0.00 23 1016.1
20260507001549 19 46 12.9 27.4 0.00 0.00 0.00 23 1016.0
20260507000039 19 57 14.5 30.6 0.00 0.00 0.00 22 1015.7
20260506234543 19 51 16.1 32.2 0.00 0.00 0.00 23 1015.8
20260506233034 20 24 12.9 27.4 0.00 0.00 0.00 23 1015.7
20260506231536 19 18 11.3 20.9 0.00 0.00 0.00 25 1015.7
20260506230031 19 1 17.7 32.2 0.00 0.00 0.00 25 1015.9
20260506224531 19 57 12.9 29.0 0.00 0.00 0.00 24 1015.8
20260506223027 18 84 8.0 27.4 0.00 0.00 0.00 24 1016.0
20260506221526 18 360 17.7 29.0 0.00 0.00 0.00 23 1015.9
20260506220024 19 68 16.1 27.4 0.00 0.00 0.00 25 1016.0
20260506214523 18 44 19.3 27.4 0.00 0.00 0.00 27 1016.2
20260506213023 18 24 19.3 30.6 0.00 0.00 0.00 29 1016.2
20260506211521 18 1 16.1 30.6 0.00 0.00 0.00 30 1016.2
20260506210023 18 56 19.3 29.0 0.00 0.00 0.00 32 1016.1
20260506204517 18 356 12.9 32.2 0.00 0.00 0.00 31 1016.1
20260506203016 18 11 20.9 33.8 0.00 0.00 0.00 31 1016.2
20260506201618 18 1 14.5 29.0 0.00 0.00 0.00 32 1016.2
20260506200017 18 33 20.9 33.8 0.00 0.00 0.00 32 1016.4
20260506194512 18 15 19.3 32.2 0.00 0.00 0.00 34 1016.5
20260506193011 17 63 14.5 29.0 0.00 0.00 0.00 36 1016.4
20260506191513 17 341 20.9 35.4 0.00 0.00 0.00 37 1016.5
20260506190007 17 25 14.5 29.0 0.00 0.00 0.00 39 1016.5
20260506184506 17 47 14.5 29.0 0.00 0.00 0.00 40 1016.7
20260506183005 17 38 9.7 27.4 0.00 0.00 0.00 40 1016.6
20260506181503 16 48 17.7 32.2 0.00 0.00 0.00 41 1016.8
20260506180201 16 60 17.7 27.4 0.00 0.00 0.00 41 1016.5
20260506174609 16 56 17.7 27.4 0.00 0.00 0.00 41 1016.4
20260506173058 15 360 11.3 24.1 0.00 0.00 0.00 43 1016.4
20260506171604 16 333 8.0 17.7 0.00 0.00 0.00 43 1016.3
20260506170052 15 48 9.7 17.7 0.00 0.00 0.00 45 1016.3
20260506164554 15 54 11.3 17.7 0.00 0.00 0.00 44 1016.2
20260506163103 15 13 8.0 20.9 0.00 0.00 0.00 45 1016.1
20260506161547 14 349 1.6 6.4 0.00 0.00 0.00 46 1016.0
20260506160045 14 40 1.6 11.3 0.00 0.00 0.00 46 1016.0
20260506154548 13 50 3.2 8.0 0.00 0.00 0.00 47 1016.0
20260506153042 13 219 0.0 4.8 0.00 0.00 0.00 45 1016.0
20260506151543 12 23 0.0 3.2 0.00 0.00 0.00 47 1015.9
20260506150038 12 193 0.0 3.2 0.00 0.00 0.00 45 1016.1
20260506144536 10 294 0.0 1.6 0.00 0.00 0.00 49 1015.9
20260506143035 9 212 0.0 1.6 0.00 0.00 0.00 52 1015.9
20260506141533 8 257 0.0 3.2 0.00 0.00 0.00 52 1015.7
20260506140034 8 222 0.0 4.8 0.00 0.00 0.00 52 1015.5
20260506134528 7 203 0.0 3.2 0.00 0.00 0.00 55 1015.3
20260506133026 5 219 0.0 4.8 0.00 0.00 0.00 62 1015.1
20260506131531 3 236 0.0 1.6 0.00 0.00 0.00 65 1014.9
20260506130022 2 248 0.0 1.6 0.00 0.00 0.00 66 1014.7
20260506124520 3 192 0.0 1.6 0.00 0.00 0.00 66 1014.3
20260506123016 3 223 0.0 1.6 0.00 0.00 0.00 64 1013.9
20260506121512 3 223 0.0 1.6 0.00 0.00 0.00 63 1013.7
20260506120012 4 185 0.0 1.6 0.00 0.00 0.00 58 1013.7
20260506114506 5 214 0.0 3.2 0.00 0.00 0.00 58 1013.6
20260506113003 5 203 0.0 3.2 0.00 0.00 0.00 57 1013.5
20260506111601 6 194 1.6 3.2 0.00 0.00 0.00 54 1013.4
20260506110103 7 235 0.0 3.2 0.00 0.00 0.00 52 1013.3
20260506104557 7 250 1.6 6.4 0.00 0.00 0.00 50 1013.1
20260506103054 7 207 1.6 4.8 0.00 0.00 0.00 50 1012.8
20260506101608 7 193 0.0 6.4 0.00 0.00 0.00 51 1012.8
20260506100046 7 221 1.6 9.7 0.00 0.00 0.00 50 1012.5
20260506094546 7 207 3.2 6.4 0.00 0.00 0.00 49 1012.5
20260506093044 8 217 4.8 11.3 0.00 0.00 0.00 48 1012.5
20260506091540 8 172 4.8 12.9 0.00 0.00 0.00 47 1012.3
20260506090037 8 204 4.8 12.9 0.00 0.00 0.00 46 1012.3
20260506084542 8 316 0.0 1.6 0.00 0.00 0.00 46 1012.1
20260506083033 8 31 0.0 1.6 0.00 0.00 0.00 46 1012.0
20260506081528 9 253 1.6 6.4 0.00 0.00 0.00 44 1011.9
20260506073024 9 278 0.0 3.2 0.00 0.00 0.00 43 1011.6
20260506071520 10 140 3.2 6.4 0.00 0.00 0.00 41 1011.5
20260506061507 11 205 12.9 19.3 0.00 0.00 0.00 37 1011.0
20260506050116 11 201 8.0 14.5 0.00 0.00 0.00 34 1010.8
20260506044557 11 272 4.8 12.9 0.00 0.00 0.00 34 1010.7
20260506043058 11 214 4.8 9.7 0.00 0.00 0.00 37 1010.5
20260506041602 11 226 6.4 11.3 0.00 0.00 0.00 37 1010.3